• In Russia
  • List of Countries
  • For 7 days
  • Water Temperature
  • Weather Map
  • Weather Widgets
  • user-avatar
    Login

    Hourly Weather Uige

    Today, 14 November, Thursday

    Time Temperature Precipitation Wind Pressure Humidity
    00:00 +22°C° 0 mm 1 mps 689 mmHg 96%
    01:00 +22°C° 0 mm 1 mps 689 mmHg 97%
    02:00 +22°C° 0 mm 1 mps 689 mmHg 97%
    03:00 +22°C° 0 mm 1 mps 689 mmHg 97%
    04:00 +22°C° 0 mm 1 mps 689 mmHg 97%
    05:00 +22°C° 0.1 mm 1 mps 689 mmHg 95%
    06:00 +23°C° 0.1 mm 1 mps 690 mmHg 94%
    07:00 +23°C° 0.1 mm 1 mps 691 mmHg 93%
    08:00 +24°C° 0.1 mm 1 mps 691 mmHg 89%
    09:00 +25°C° 0.1 mm 1 mps 690 mmHg 85%
    10:00 +26°C° 0.1 mm 1 mps 690 mmHg 81%
    11:00 +24°C° 0.2 mm 0 mps 690 mmHg 80%
    12:00 +24°C° 0.2 mm 0 mps 689 mmHg 80%
    13:00 +25°C° 0.2 mm 0 mps 688 mmHg 79%
    14:00 +25°C° 0.4 mm 0 mps 688 mmHg 77%
    15:00 +26°C° 0.4 mm 0 mps 688 mmHg 75%
    16:00 +28°C° 0.4 mm 1 mps 688 mmHg 73%
    17:00 +25°C° 0.6 mm 0 mps 688 mmHg 78%
    18:00 +23°C° 0.6 mm 0 mps 688 mmHg 83%
    19:00 +21°C° 0.6 mm 0 mps 689 mmHg 89%
    20:00 +21°C° 0.8 mm 0 mps 689 mmHg 90%
    21:00 +21°C° 0.8 mm 0 mps 690 mmHg 92%
    22:00 +20°C° 0.8 mm 0 mps 690 mmHg 94%
    23:00 +20°C° 1.8 mm 0 mps 690 mmHg 95%

    Tomorrow, 15 November, Friday

    Time Temperature Precipitation Wind Pressure Humidity
    00:00 +20°C° 1.8 mm 0 mps 690 mmHg 96%
    01:00 +20°C° 1.8 mm 0 mps 690 mmHg 97%
    02:00 +20°C° 3.1 mm 0 mps 689 mmHg 98%
    03:00 +22°C° 3.1 mm 1 mps 689 mmHg 98%
    04:00 +22°C° 3.1 mm 1 mps 689 mmHg 99%
    05:00 +22°C° 2.4 mm 1 mps 689 mmHg 99%
    06:00 +22°C° 2.4 mm 1 mps 690 mmHg 99%
    07:00 +22°C° 2.4 mm 1 mps 691 mmHg 99%
    08:00 +22°C° 5.5 mm 1 mps 691 mmHg 99%
    09:00 +22°C° 5.5 mm 1 mps 691 mmHg 99%
    10:00 +22°C° 5.5 mm 1 mps 691 mmHg 99%
    11:00 +23°C° 0.6 mm 1 mps 690 mmHg 96%
    12:00 +23°C° 0.6 mm 1 mps 689 mmHg 93%
    13:00 +24°C° 0.6 mm 1 mps 688 mmHg 90%
    14:00 +25°C° 0 mm 1 mps 688 mmHg 86%
    15:00 +25°C° 0 mm 1 mps 688 mmHg 82%
    16:00 +26°C° 0 mm 1 mps 687 mmHg 78%
    17:00 +25°C° 0 mm 1 mps 688 mmHg 84%
    18:00 +24°C° 0 mm 1 mps 688 mmHg 90%
    19:00 +20°C° 0 mm 0 mps 688 mmHg 96%
    20:00 +20°C° 0 mm 0 mps 689 mmHg 97%
    21:00 +20°C° 0 mm 0 mps 689 mmHg 97%
    22:00 +20°C° 0 mm 0 mps 689 mmHg 98%
    23:00 +20°C° 0 mm 0 mps 689 mmHg 98%

    Day after tomorrow, 16 November, Saturday

    Time Temperature Precipitation Wind Pressure Humidity
    00:00 +20°C° 0 mm 0 mps 689 mmHg 98%
    01:00 +20°C° 0 mm 0 mps 689 mmHg 98%
    02:00 +20°C° 0 mm 0 mps 689 mmHg 98%
    03:00 +20°C° 0 mm 0 mps 688 mmHg 98%
    04:00 +20°C° 0 mm 0 mps 688 mmHg 98%
    05:00 +20°C° 0.1 mm 0 mps 689 mmHg 97%
    06:00 +21°C° 0.1 mm 0 mps 689 mmHg 96%
    07:00 +23°C° 0.1 mm 1 mps 690 mmHg 95%
    08:00 +24°C° 0.1 mm 1 mps 690 mmHg 91%
    09:00 +25°C° 0.1 mm 1 mps 690 mmHg 87%
    10:00 +26°C° 0.1 mm 1 mps 690 mmHg 83%
    11:00 +27°C° 0.5 mm 1 mps 690 mmHg 81%
    12:00 +27°C° 0.5 mm 2 mps 689 mmHg 79%
    13:00 +28°C° 0.5 mm 2 mps 688 mmHg 78%
    14:00 +27°C° 1 mm 2 mps 688 mmHg 81%
    15:00 +27°C° 1 mm 2 mps 687 mmHg 85%
    16:00 +26°C° 1 mm 1 mps 687 mmHg 89%
    17:00 +25°C° 0.4 mm 1 mps 687 mmHg 92%
    18:00 +24°C° 0.4 mm 1 mps 688 mmHg 94%
    19:00 +21°C° 0.4 mm 0 mps 688 mmHg 97%
    20:00 +21°C° 0.2 mm 0 mps 688 mmHg 98%
    21:00 +23°C° 0.2 mm 1 mps 689 mmHg 98%
    22:00 +23°C° 0.2 mm 1 mps 689 mmHg 98%
    23:00 +22°C° 0.6 mm 1 mps 689 mmHg 98%

    17 November, Sunday

    Time Temperature Precipitation Wind Pressure Humidity
    00:00 +22°C° 0.6 mm 1 mps 689 mmHg 99%
    01:00 +22°C° 0.6 mm 1 mps 689 mmHg 99%
    02:00 +22°C° 0.3 mm 1 mps 689 mmHg 99%
    03:00 +22°C° 0.3 mm 1 mps 689 mmHg 99%
    04:00 +22°C° 0.3 mm 1 mps 689 mmHg 99%
    05:00 +22°C° 0.2 mm 1 mps 689 mmHg 99%
    06:00 +22°C° 0.2 mm 1 mps 689 mmHg 98%
    07:00 +22°C° 0.2 mm 1 mps 690 mmHg 98%
    08:00 +22°C° 0 mm 1 mps 690 mmHg 97%
    09:00 +23°C° 0 mm 1 mps 690 mmHg 96%
    10:00 +21°C° 0 mm 0 mps 690 mmHg 94%
    11:00 +22°C° 0 mm 0 mps 689 mmHg 89%
    12:00 +22°C° 0 mm 0 mps 689 mmHg 85%
    13:00 +23°C° 0 mm 0 mps 689 mmHg 80%
    14:00 +24°C° 0 mm 0 mps 688 mmHg 79%
    15:00 +24°C° 0 mm 0 mps 688 mmHg 77%
    16:00 +24°C° 0 mm 0 mps 688 mmHg 76%
    17:00 +23°C° 0.4 mm 0 mps 688 mmHg 82%
    18:00 +21°C° 0.4 mm 0 mps 688 mmHg 88%
    19:00 +20°C° 0.4 mm 0 mps 689 mmHg 94%
    20:00 +20°C° 0.2 mm 0 mps 689 mmHg 94%
    21:00 +20°C° 0.2 mm 0 mps 689 mmHg 95%
    22:00 +19°C° 0.2 mm 0 mps 690 mmHg 95%
    23:00 +19°C° 0 mm 0 mps 689 mmHg 96%

    18 November, Monday

    Time Temperature Precipitation Wind Pressure Humidity
    00:00 +19°C° 0 mm 0 mps 689 mmHg 96%
    01:00 +19°C° 0 mm 0 mps 689 mmHg 97%
    02:00 +19°C° 0 mm 0 mps 689 mmHg 97%
    03:00 +19°C° 0 mm 0 mps 689 mmHg 98%
    04:00 +19°C° 0 mm 0 mps 688 mmHg 98%
    05:00 +19°C° 0 mm 0 mps 689 mmHg 97%
    06:00 +20°C° 0 mm 0 mps 689 mmHg 96%
    07:00 +21°C° 0 mm 0 mps 690 mmHg 96%
    08:00 +22°C° 0 mm 0 mps 690 mmHg 89%
    09:00 +25°C° 0 mm 1 mps 691 mmHg 82%
    10:00 +27°C° 0 mm 1 mps 691 mmHg 75%
    11:00 +27°C° 0.3 mm 2 mps 690 mmHg 75%
    12:00 +28°C° 0.3 mm 2 mps 690 mmHg 74%
    13:00 +28°C° 0.3 mm 2 mps 689 mmHg 74%
    14:00 +28°C° 0.8 mm 2 mps 689 mmHg 79%
    15:00 +27°C° 0.8 mm 2 mps 688 mmHg 84%
    16:00 +26°C° 0.8 mm 2 mps 688 mmHg 89%
    17:00 +25°C° 0.8 mm 1 mps 688 mmHg 92%
    18:00 +24°C° 0.8 mm 1 mps 689 mmHg 94%
    19:00 +22°C° 0.8 mm 1 mps 689 mmHg 97%
    20:00 +20°C° 0.3 mm 0 mps 690 mmHg 97%
    21:00 +20°C° 0.3 mm 0 mps 690 mmHg 98%
    22:00 +20°C° 0.3 mm 0 mps 691 mmHg 98%
    23:00 +20°C° 0.1 mm 0 mps 690 mmHg 98%

    19 November, Tuesday

    Time Temperature Precipitation Wind Pressure Humidity
    00:00 +20°C° 0.1 mm 0 mps 690 mmHg 99%
    01:00 +20°C° 0.1 mm 0 mps 690 mmHg 99%
    02:00 +20°C° 0 mm 0 mps 690 mmHg 99%
    03:00 +20°C° 0 mm 0 mps 690 mmHg 99%
    04:00 +20°C° 0 mm 0 mps 689 mmHg 99%
    05:00 +20°C° 0 mm 0 mps 690 mmHg 98%
    06:00 +20°C° 0 mm 0 mps 690 mmHg 97%
    07:00 +21°C° 0 mm 0 mps 691 mmHg 97%
    08:00 +25°C° 0 mm 1 mps 691 mmHg 86%
    09:00 +27°C° 0 mm 1 mps 691 mmHg 75%
    10:00 +29°C° 0 mm 1 mps 692 mmHg 64%
    11:00 +29°C° 0.1 mm 2 mps 691 mmHg 64%
    12:00 +29°C° 0.1 mm 2 mps 690 mmHg 63%
    13:00 +29°C° 0.1 mm 3 mps 690 mmHg 63%
    14:00 +29°C° 0.1 mm 2 mps 689 mmHg 66%
    15:00 +28°C° 0.1 mm 2 mps 689 mmHg 70%
    16:00 +27°C° 0.1 mm 2 mps 688 mmHg 74%
    17:00 +26°C° 0.1 mm 1 mps 688 mmHg 80%
    18:00 +25°C° 0.1 mm 1 mps 689 mmHg 86%
    19:00 +23°C° 0.1 mm 1 mps 689 mmHg 93%
    20:00 +21°C° 0 mm 0 mps 689 mmHg 94%
    21:00 +20°C° 0 mm 0 mps 690 mmHg 95%
    22:00 +20°C° 0 mm 0 mps 690 mmHg 96%
    23:00 +20°C° 0 mm 0 mps 690 mmHg 96%
    Show more